Location: Sanluri
(39.5670°N, 8.9000°E)
Time: 09:27:32
(UTC+02:00)

ISS - Visible Passes

Search period start: 08 May 2021 00:00
Search period end: 18 May 2021 00:00
Orbit: 418 x 421 km, 51.6° (Epoch: 08 May)

Date Brightness Start Highest point End Pass type
(mag) Time Alt. Az. Time Alt. Az. Time Alt. Az.
08 May -0.6 02:49:25 15° N 02:49:25 15° N 02:50:33 10° NNE visible
08 May -0.6 04:25:12 10° NNW 04:26:04 11° N 04:26:56 10° NNE visible
09 May -0.6 03:37:19 10° NNW 03:38:20 11° N 03:39:22 10° NNE visible
09 May -0.8 05:14:18 10° NNW 05:16:18 15° NNE 05:18:19 10° NE visible
10 May -0.6 02:50:23 12° NNW 02:50:37 12° N 02:52:03 10° NNE visible
10 May -0.6 04:27:05 10° NNW 04:28:37 12° N 04:30:09 10° NE visible
11 May -0.3 02:04:21 12° NNE 02:04:21 12° NNE 02:04:49 10° NNE visible
11 May -0.5 03:39:48 10° NNW 03:40:54 11° N 03:41:59 10° NNE visible
11 May -1.3 05:15:48 10° NNW 05:18:39 24° NNE 05:21:30 10° E visible
12 May -0.3 02:52:19 10° NNW 02:53:10 11° N 02:54:01 10° NNE visible
12 May -0.8 04:28:35 10° NNW 04:31:03 18° NNE 04:33:30 10° ENE visible
13 May -0.3 02:05:02 11° NNW 02:05:25 11° N 02:06:26 10° NNE visible
13 May -0.6 03:41:22 10° NNW 03:43:23 15° NNE 03:45:24 10° NE visible
13 May -3.0 05:17:26 10° NW 05:20:46 56° NE 05:24:06 10° ESE visible
14 May -0.2 01:18:38 11° N 01:18:38 11° N 01:19:06 10° NNE visible
14 May -0.4 02:54:09 10° NNW 02:55:41 12° N 02:57:14 10° NE visible
14 May -2.0 04:30:07 10° NW 04:33:16 35° NNE 04:36:25 10° E visible
14 May -2.2 21:13:45 10° S 21:16:01 17° SE 21:18:18 10° E visible
14 May -2.9 22:49:17 10° WSW 22:52:33 50° NW 22:55:40 11° NE visible
15 May -0.5 00:28:06 10° NW 00:30:00 14° NNW 00:31:53 10° NNE visible
15 May -0.2 02:06:53 10° NNW 02:07:58 11° N 02:09:03 10° NNE visible
15 May -1.4 03:42:52 10° NNW 03:45:43 25° NNE 03:48:34 10° E visible
15 May -3.5 05:19:24 10° WNW 05:22:39 46° SW 05:25:54 10° SSE visible
15 May -3.8 22:01:45 10° SW 22:05:05 85° NW 22:08:29 10° NE visible
15 May -0.8 23:39:59 10° WNW 23:42:19 17° NNW 23:44:40 10° NNE visible
16 May -0.1 01:19:23 10° NNW 01:20:14 11° N 01:21:04 10° NNE visible
16 May -0.9 02:55:38 10° NNW 02:58:06 19° NNE 03:00:35 10° ENE visible
16 May -3.9 04:31:53 10° NW 04:35:16 83° SW 04:38:38 10° SE visible
16 May -3.7 21:14:25 10° SW 21:17:41 53° SE 21:21:00 10° ENE visible
16 May -1.2 22:51:57 10° W 22:54:42 23° NNW 22:57:26 10° NNE visible
17 May -0.2 00:31:30 10° NNW 00:32:29 11° N 00:33:28 10° NNE visible
17 May -0.6 02:08:25 10° NNW 02:10:26 15° NNE 02:12:28 10° NE visible
17 May -3.2 03:45:05 14° NW 03:47:50 57° NE 03:51:09 10° ESE visible
17 May -2.0 05:22:17 10° W 05:24:18 15° SW 05:26:19 10° SSW visible
17 May -1.8 22:04:04 10° W 22:07:07 32° NNW 22:10:11 10° NE visible
17 May -0.3 23:43:21 10° NW 23:44:45 12° N 23:46:09 10° NNE visible
